RYR6RU EGSS-LEAM

Flight info

Callsign RYR6RU
Flight time 2h 31m
Altitude 37000
Route NUGBO M183 SILVA Q41 COWLY UT71 VAPID UN859 SOPIL DCT BALAN DCT LMG DCT PIMQO DCT AGN DCT ANETO N860 DOSEK
Aircraft B738/M-SDE3FGILRWY/SB1

Departure

Time 2026-04-26 13:47
Airport London Stansted Airport (EGSS)

Arrival

Time 2026-04-26 16:19
Airport Almería Airport (LEAM)
Time Latitude Longitude Altitude Speed Heading
2026-04-26 13:21 51.89128 0.25522 351 ft 0 kts 55°
2026-04-26 13:36 51.89126 0.25517 351 ft 3 kts 55°
2026-04-26 13:36 51.89113 0.25487 361 ft 3 kts 53°
2026-04-26 13:37 51.89098 0.25473 361 ft 4 kts 333°
2026-04-26 13:37 51.89079 0.25499 357 ft 4 kts 313°
2026-04-26 13:37 51.89071 0.25513 351 ft 0 kts 313°
2026-04-26 13:40 51.89077 0.25503 355 ft 5 kts 313°
2026-04-26 13:40 51.89109 0.25447 353 ft 8 kts 313°
2026-04-26 13:40 51.89145 0.25384 353 ft 8 kts 313°
2026-04-26 13:41 51.89177 0.25318 351 ft 8 kts 296°
2026-04-26 13:41 51.89207 0.25232 351 ft 11 kts 308°
2026-04-26 13:41 51.89237 0.25110 351 ft 12 kts 256°
2026-04-26 13:41 51.89185 0.24992 351 ft 14 kts 224°
2026-04-26 13:42 51.89107 0.24872 353 ft 17 kts 221°
2026-04-26 13:42 51.89015 0.24737 354 ft 19 kts 223°
2026-04-26 13:42 51.88921 0.24594 351 ft 18 kts 223°
2026-04-26 13:42 51.88830 0.24457 348 ft 19 kts 222°
2026-04-26 13:43 51.88730 0.24309 348 ft 19 kts 223°
2026-04-26 13:43 51.88621 0.24147 339 ft 23 kts 222°
2026-04-26 13:43 51.88508 0.23977 338 ft 22 kts 223°
2026-04-26 13:43 51.88399 0.23811 343 ft 21 kts 223°
2026-04-26 13:44 51.88292 0.23650 347 ft 21 kts 223°
2026-04-26 13:44 51.88188 0.23495 339 ft 20 kts 223°
2026-04-26 13:44 51.88088 0.23344 338 ft 19 kts 223°
2026-04-26 13:44 51.87989 0.23196 337 ft 19 kts 223°
2026-04-26 13:45 51.87892 0.23051 337 ft 19 kts 223°
2026-04-26 13:45 51.87820 0.22931 338 ft 8 kts 243°
2026-04-26 13:45 51.87843 0.22842 336 ft 16 kts 310°
2026-04-26 13:45 51.87928 0.22692 331 ft 17 kts 321°
2026-04-26 13:46 51.87985 0.22707 329 ft 8 kts 44°
2026-04-26 13:46 51.87991 0.22716 332 ft 2 kts 44°
2026-04-26 13:46 51.88011 0.22748 328 ft 14 kts 45°
2026-04-26 13:46 51.88323 0.23218 336 ft 106 kts 43°
2026-04-26 13:47 51.89060 0.24339 415 ft 177 kts 44°
2026-04-26 13:47 51.90103 0.25778 912 ft 216 kts 40°
2026-04-26 13:47 51.91331 0.27320 1633 ft 232 kts 31°
2026-04-26 13:47 51.92886 0.27985 2639 ft 234 kts 359°
2026-04-26 13:48 51.94477 0.27427 3324 ft 240 kts 334°
2026-04-26 13:48 51.95776 0.25755 3922 ft 240 kts 307°
2026-04-26 13:48 51.96711 0.23457 4143 ft 253 kts 310°
2026-04-26 13:48 51.98141 0.21838 4036 ft 250 kts 332°
2026-04-26 13:49 51.99631 0.20444 3983 ft 245 kts 322°
2026-04-26 13:49 52.00602 0.18239 4004 ft 249 kts 283°
2026-04-26 13:49 52.00556 0.15379 4011 ft 261 kts 253°
2026-04-26 13:49 52.00036 0.12580 4006 ft 265 kts 253°
2026-04-26 13:50 51.99547 0.09711 4012 ft 263 kts 255°
2026-04-26 13:50 51.99105 0.06830 4000 ft 263 kts 256°
2026-04-26 13:50 51.98701 0.03937 3999 ft 263 kts 257°
2026-04-26 13:50 51.98320 0.01030 4001 ft 264 kts 257°
2026-04-26 13:51 51.97948 -0.01880 3997 ft 264 kts 257°
2026-04-26 13:51 51.97578 -0.04802 3999 ft 264 kts 257°
2026-04-26 13:51 51.97205 -0.07728 4062 ft 266 kts 257°
2026-04-26 13:51 51.96825 -0.10668 4688 ft 267 kts 257°
2026-04-26 13:52 51.96441 -0.13627 5645 ft 268 kts 257°
2026-04-26 13:52 51.96057 -0.16554 6597 ft 270 kts 257°
2026-04-26 13:52 51.95665 -0.19556 7475 ft 273 kts 257°
2026-04-26 13:52 51.95272 -0.22559 8435 ft 272 kts 257°
2026-04-26 13:53 51.94875 -0.25589 9281 ft 276 kts 257°
2026-04-26 13:53 51.94475 -0.28638 10155 ft 280 kts 257°
2026-04-26 13:53 51.94064 -0.31766 10755 ft 292 kts 257°
2026-04-26 13:53 51.93620 -0.35130 10961 ft 317 kts 257°
2026-04-26 13:54 51.93149 -0.38694 11497 ft 328 kts 257°
2026-04-26 13:54 51.92674 -0.42277 12285 ft 331 kts 257°
2026-04-26 13:54 51.92188 -0.45935 13104 ft 333 kts 257°
2026-04-26 13:55 51.91202 -0.53338 14649 ft 340 kts 257°
2026-04-26 13:55 51.90870 -0.55826 15100 ft 343 kts 257°
2026-04-26 13:55 51.88876 -0.64225 16649 ft 352 kts 224°
2026-04-26 13:56 51.86853 -0.66472 17381 ft 356 kts 207°
2026-04-26 13:56 51.84611 -0.68200 18063 ft 359 kts 205°
2026-04-26 13:56 51.82352 -0.69857 18701 ft 363 kts 205°
2026-04-26 13:56 51.80033 -0.71542 19253 ft 367 kts 205°
2026-04-26 13:57 51.77707 -0.73244 19907 ft 368 kts 205°
2026-04-26 13:57 51.75367 -0.74970 20492 ft 371 kts 206°
2026-04-26 13:57 51.73008 -0.76724 21038 ft 375 kts 206°
2026-04-26 13:57 51.70629 -0.78500 21590 ft 378 kts 206°
2026-04-26 13:58 51.68232 -0.80293 22172 ft 381 kts 206°
2026-04-26 13:58 51.65820 -0.82098 22724 ft 384 kts 206°
2026-04-26 13:58 51.63419 -0.83894 23212 ft 387 kts 206°
2026-04-26 13:58 51.60969 -0.85726 23637 ft 390 kts 206°
2026-04-26 13:59 51.58496 -0.87572 24045 ft 393 kts 206°
2026-04-26 13:59 51.56011 -0.89424 24443 ft 395 kts 206°
2026-04-26 13:59 51.53519 -0.91279 24875 ft 395 kts 206°
2026-04-26 14:00 51.45964 -0.96892 26015 ft 401 kts 206°
2026-04-26 14:00 51.43435 -0.98766 26450 ft 401 kts 206°
2026-04-26 14:00 51.41756 -1.00009 26669 ft 403 kts 206°
2026-04-26 14:01 51.38370 -1.02507 27082 ft 407 kts 205°
2026-04-26 14:01 51.35686 -1.03998 27393 ft 412 kts 196°
2026-04-26 14:01 51.32856 -1.04799 27738 ft 416 kts 188°
2026-04-26 14:01 51.29952 -1.04895 28051 ft 420 kts 181°
2026-04-26 14:02 51.27024 -1.04575 28367 ft 425 kts 174°
2026-04-26 14:02 51.24127 -1.03512 28669 ft 430 kts 165°
2026-04-26 14:02 51.21335 -1.01734 28979 ft 435 kts 158°
2026-04-26 14:02 51.18583 -0.99688 29289 ft 437 kts 158°
2026-04-26 14:03 51.15823 -0.97627 29574 ft 439 kts 158°
2026-04-26 14:03 51.13084 -0.95596 29847 ft 441 kts 158°
2026-04-26 14:03 51.10289 -0.93546 30062 ft 445 kts 159°
2026-04-26 14:03 51.07454 -0.91486 30173 ft 450 kts 159°
2026-04-26 14:04 51.04594 -0.89419 30403 ft 453 kts 159°
2026-04-26 14:04 51.01727 -0.87352 30670 ft 453 kts 159°
2026-04-26 14:04 50.98850 -0.85281 30928 ft 454 kts 159°
2026-04-26 14:04 50.95966 -0.83207 31150 ft 456 kts 159°
2026-04-26 14:05 50.93069 -0.81126 31367 ft 457 kts 159°
2026-04-26 14:05 50.90173 -0.79047 31658 ft 457 kts 159°
2026-04-26 14:05 50.87316 -0.77000 31983 ft 456 kts 159°
2026-04-26 14:05 50.84465 -0.74811 32311 ft 457 kts 154°
2026-04-26 14:06 50.81755 -0.72178 32605 ft 458 kts 150°
2026-04-26 14:06 50.79084 -0.69417 32884 ft 459 kts 150°
2026-04-26 14:06 50.76430 -0.66631 33171 ft 458 kts 150°
2026-04-26 14:06 50.73775 -0.63853 33476 ft 457 kts 150°
2026-04-26 14:07 50.71117 -0.61099 33767 ft 457 kts 150°
2026-04-26 14:07 50.68451 -0.58366 34044 ft 457 kts 150°
2026-04-26 14:07 50.65785 -0.55655 34315 ft 456 kts 151°
2026-04-26 14:07 50.63116 -0.52953 34567 ft 455 kts 151°
2026-04-26 14:08 50.60489 -0.50301 34830 ft 454 kts 151°
2026-04-26 14:08 50.57830 -0.47622 35038 ft 455 kts 151°
2026-04-26 14:08 50.55162 -0.44939 35244 ft 455 kts 151°
2026-04-26 14:08 50.52496 -0.42259 35480 ft 455 kts 151°
2026-04-26 14:09 50.49834 -0.39586 35726 ft 454 kts 151°
2026-04-26 14:09 50.47176 -0.36921 35958 ft 453 kts 151°
2026-04-26 14:09 50.44516 -0.34256 36167 ft 454 kts 151°
2026-04-26 14:09 50.41856 -0.31595 36362 ft 453 kts 150°
2026-04-26 14:10 50.39235 -0.28977 36598 ft 453 kts 150°
2026-04-26 14:10 50.36580 -0.26328 36829 ft 452 kts 150°
2026-04-26 14:10 50.33929 -0.23687 37018 ft 452 kts 150°
2026-04-26 14:10 50.31275 -0.21046 37216 ft 452 kts 150°
2026-04-26 14:11 50.25937 -0.15747 37279 ft 455 kts 150°
2026-04-26 14:11 50.20611 -0.10470 37272 ft 452 kts 150°
2026-04-26 14:12 50.15359 -0.05279 37272 ft 448 kts 150°
2026-04-26 14:12 50.10026 -0.00329 37257 ft 443 kts 159°
2026-04-26 14:13 50.04170 0.02460 37285 ft 443 kts 170°
2026-04-26 14:13 50.01158 0.03583 37284 ft 447 kts 170°
2026-04-26 14:14 49.95121 0.05859 37252 ft 450 kts 169°
2026-04-26 14:14 49.89035 0.08219 37267 ft 452 kts 169°
2026-04-26 14:15 49.82941 0.10603 37252 ft 452 kts 169°
2026-04-26 14:15 49.76833 0.12985 37249 ft 452 kts 169°
2026-04-26 14:16 49.70787 0.15335 37238 ft 451 kts 169°
2026-04-26 14:16 49.64717 0.17721 37242 ft 450 kts 168°
2026-04-26 14:17 49.58676 0.20182 37239 ft 449 kts 168°
2026-04-26 14:17 49.52651 0.22634 37242 ft 447 kts 168°
2026-04-26 14:18 49.46637 0.25062 37235 ft 446 kts 169°
2026-04-26 14:18 49.40677 0.27459 37241 ft 445 kts 169°
2026-04-26 14:19 49.34688 0.29863 37235 ft 445 kts 169°
2026-04-26 14:19 49.28703 0.32278 37235 ft 445 kts 168°
2026-04-26 14:20 49.22734 0.34791 37239 ft 445 kts 168°
2026-04-26 14:20 49.16807 0.37300 37233 ft 445 kts 168°
2026-04-26 14:21 49.10827 0.39812 37235 ft 446 kts 168°
2026-04-26 14:21 49.04845 0.42312 37227 ft 446 kts 168°
2026-04-26 14:22 48.98852 0.44809 37220 ft 447 kts 168°
2026-04-26 14:22 48.92842 0.47307 37232 ft 448 kts 168°
2026-04-26 14:23 48.86853 0.49792 37241 ft 450 kts 168°
2026-04-26 14:23 48.80803 0.52295 37222 ft 451 kts 168°
2026-04-26 14:24 48.74729 0.54746 37220 ft 452 kts 169°
2026-04-26 14:24 48.68626 0.57112 37223 ft 453 kts 169°
2026-04-26 14:25 48.62550 0.59471 37206 ft 454 kts 169°
2026-04-26 14:25 48.56439 0.61851 37213 ft 454 kts 169°
2026-04-26 14:26 48.50326 0.64238 37218 ft 454 kts 168°
2026-04-26 14:26 48.44232 0.66716 37209 ft 453 kts 168°
2026-04-26 14:27 48.38193 0.69185 37205 ft 453 kts 168°
2026-04-26 14:27 48.32114 0.71650 37210 ft 452 kts 168°
2026-04-26 14:28 48.26046 0.74099 37203 ft 451 kts 168°
2026-04-26 14:28 48.19980 0.76511 37194 ft 451 kts 168°
2026-04-26 14:29 48.13957 0.78874 37196 ft 450 kts 168°
2026-04-26 14:29 48.07896 0.81250 37202 ft 450 kts 168°
2026-04-26 14:30 48.01836 0.83623 37199 ft 450 kts 168°
2026-04-26 14:30 47.95777 0.85993 37195 ft 450 kts 168°
2026-04-26 14:31 47.89758 0.88342 37205 ft 451 kts 168°
2026-04-26 14:31 47.83684 0.90705 37198 ft 452 kts 168°
2026-04-26 14:32 47.77595 0.93064 37184 ft 453 kts 168°
2026-04-26 14:32 47.71494 0.95420 37198 ft 454 kts 168°
2026-04-26 14:33 47.65375 0.97779 37197 ft 455 kts 168°
2026-04-26 14:33 47.59286 1.00122 37193 ft 456 kts 168°
2026-04-26 14:34 47.53139 1.02481 37189 ft 457 kts 168°
2026-04-26 14:34 47.46986 1.04838 37189 ft 457 kts 168°
2026-04-26 14:35 47.40806 1.06511 37183 ft 453 kts 182°
2026-04-26 14:35 47.34525 1.06337 37181 ft 451 kts 184°
2026-04-26 14:36 47.28241 1.06094 37188 ft 452 kts 184°
2026-04-26 14:36 47.21952 1.05924 37185 ft 453 kts 184°
2026-04-26 14:37 47.15695 1.05787 37175 ft 453 kts 183°
2026-04-26 14:37 47.09390 1.05651 37187 ft 453 kts 183°
2026-04-26 14:38 47.03089 1.05511 37182 ft 453 kts 183°
2026-04-26 14:38 46.96784 1.05287 37177 ft 453 kts 184°
2026-04-26 14:39 46.90486 1.04991 37173 ft 453 kts 184°
2026-04-26 14:39 46.84233 1.04705 37172 ft 453 kts 184°
2026-04-26 14:40 46.77943 1.04431 37173 ft 452 kts 184°
2026-04-26 14:40 46.71649 1.04160 37170 ft 452 kts 184°
2026-04-26 14:41 46.65356 1.03890 37169 ft 452 kts 184°
2026-04-26 14:41 46.59111 1.03622 37168 ft 452 kts 184°
2026-04-26 14:42 46.52819 1.03352 37161 ft 452 kts 184°
2026-04-26 14:42 46.46525 1.03186 37170 ft 452 kts 182°
2026-04-26 14:43 46.40228 1.03153 37169 ft 453 kts 182°
2026-04-26 14:43 46.33969 1.03116 37162 ft 453 kts 182°
2026-04-26 14:44 46.27669 1.03061 37173 ft 453 kts 182°
2026-04-26 14:44 46.21364 1.02997 37172 ft 453 kts 182°
2026-04-26 14:45 46.15057 1.02933 37164 ft 453 kts 182°
2026-04-26 14:45 46.08790 1.02870 37179 ft 454 kts 182°
2026-04-26 14:46 46.02476 1.02807 37174 ft 454 kts 182°
2026-04-26 14:46 45.96155 1.02744 37172 ft 454 kts 182°
2026-04-26 14:47 45.89830 1.02681 37178 ft 454 kts 182°
2026-04-26 14:47 45.83552 1.02619 37189 ft 455 kts 182°
2026-04-26 14:48 45.77250 1.03496 37189 ft 456 kts 171°
2026-04-26 14:48 45.71012 1.05204 37187 ft 457 kts 170°
2026-04-26 14:49 45.64769 1.06896 37165 ft 457 kts 170°
2026-04-26 14:49 45.58557 1.08507 37157 ft 457 kts 171°
2026-04-26 14:50 45.52300 1.10099 37157 ft 456 kts 171°
2026-04-26 14:50 45.46049 1.11684 37162 ft 456 kts 171°
2026-04-26 14:51 45.39800 1.13268 37155 ft 456 kts 171°
2026-04-26 14:51 45.33600 1.14838 37165 ft 455 kts 171°
2026-04-26 14:52 45.27361 1.16414 37160 ft 455 kts 170°
2026-04-26 14:52 45.21118 1.17987 37162 ft 455 kts 170°
2026-04-26 14:53 45.14873 1.18924 37155 ft 455 kts 183°
2026-04-26 14:53 45.08647 1.17604 37167 ft 453 kts 192°
2026-04-26 14:54 45.02456 1.15916 37161 ft 453 kts 192°
2026-04-26 14:54 44.96259 1.14272 37145 ft 453 kts 192°
2026-04-26 14:55 44.90050 1.12673 37162 ft 453 kts 191°
2026-04-26 14:55 44.83885 1.11104 37161 ft 453 kts 191°
2026-04-26 14:56 44.77677 1.09528 37146 ft 454 kts 191°
2026-04-26 14:56 44.71472 1.07955 37165 ft 453 kts 191°
2026-04-26 14:57 44.65266 1.06384 37148 ft 453 kts 191°
2026-04-26 14:57 44.59110 1.04829 37169 ft 452 kts 191°
2026-04-26 14:58 44.52912 1.03267 37160 ft 452 kts 191°
2026-04-26 14:58 44.46725 1.01711 37162 ft 451 kts 191°
2026-04-26 14:59 44.40590 1.00171 37158 ft 451 kts 191°
2026-04-26 14:59 44.34415 0.98624 37161 ft 450 kts 191°
2026-04-26 15:00 44.28246 0.97083 37156 ft 450 kts 191°
2026-04-26 15:00 44.22084 0.95546 37154 ft 450 kts 191°
2026-04-26 15:01 44.15928 0.94014 37160 ft 449 kts 191°
2026-04-26 15:01 44.09812 0.92495 37155 ft 449 kts 191°
2026-04-26 15:02 44.03661 0.90971 37159 ft 449 kts 191°
2026-04-26 15:02 43.97514 0.89451 37156 ft 449 kts 191°
2026-04-26 15:03 43.91364 0.87932 37155 ft 449 kts 191°
2026-04-26 15:03 43.85267 0.86393 37153 ft 448 kts 192°
2026-04-26 15:04 43.79144 0.84741 37154 ft 448 kts 192°
2026-04-26 15:04 43.73029 0.83083 37150 ft 448 kts 192°
2026-04-26 15:05 43.66912 0.81439 37150 ft 448 kts 192°
2026-04-26 15:05 43.60838 0.79818 37151 ft 447 kts 192°
2026-04-26 15:06 43.54731 0.78193 37145 ft 447 kts 192°
2026-04-26 15:06 43.48621 0.76571 37149 ft 447 kts 192°
2026-04-26 15:07 43.39465 0.74146 37154 ft 446 kts 191°
2026-04-26 15:07 43.33414 0.72547 37151 ft 446 kts 191°
2026-04-26 15:08 43.27322 0.70940 37143 ft 445 kts 191°
2026-04-26 15:08 43.21247 0.69342 37153 ft 444 kts 191°
2026-04-26 15:09 43.15179 0.67748 37157 ft 444 kts 192°
2026-04-26 15:09 43.09162 0.66171 37161 ft 443 kts 191°
2026-04-26 15:10 43.04136 0.64856 37169 ft 442 kts 192°
2026-04-26 15:10 42.97075 0.63013 37163 ft 442 kts 192°
2026-04-26 15:11 42.91040 0.61440 37168 ft 441 kts 191°
2026-04-26 15:11 42.85055 0.59884 37181 ft 441 kts 192°
2026-04-26 15:12 42.79024 0.58318 37185 ft 441 kts 192°
2026-04-26 15:12 42.72988 0.56754 37201 ft 443 kts 191°
2026-04-26 15:13 42.66968 0.55200 37189 ft 443 kts 191°
2026-04-26 15:13 42.60907 0.53649 37170 ft 444 kts 191°
2026-04-26 15:14 42.54842 0.52098 37173 ft 444 kts 192°
2026-04-26 15:14 42.48765 0.50547 37162 ft 444 kts 192°
2026-04-26 15:15 42.42696 0.49002 37150 ft 444 kts 192°
2026-04-26 15:15 42.36674 0.47467 37157 ft 443 kts 192°
2026-04-26 15:16 42.30626 0.45922 37134 ft 442 kts 192°
2026-04-26 15:16 42.24591 0.44382 37128 ft 441 kts 192°
2026-04-26 15:17 42.19583 0.43105 37102 ft 440 kts 192°
2026-04-26 15:17 42.12603 0.41330 37111 ft 439 kts 191°
2026-04-26 15:18 42.06601 0.39805 37104 ft 438 kts 192°
2026-04-26 15:18 42.00609 0.38283 37101 ft 438 kts 192°
2026-04-26 15:19 41.94622 0.36774 37102 ft 438 kts 191°
2026-04-26 15:19 41.88676 0.35281 37093 ft 437 kts 191°
2026-04-26 15:20 41.82693 0.33779 37100 ft 437 kts 191°
2026-04-26 15:20 41.76707 0.32278 37095 ft 438 kts 192°
2026-04-26 15:21 41.70721 0.30786 37098 ft 438 kts 192°
2026-04-26 15:21 41.64734 0.29304 37094 ft 437 kts 192°
2026-04-26 15:22 41.58790 0.27835 37089 ft 437 kts 192°
2026-04-26 15:22 41.52805 0.26357 37084 ft 437 kts 192°
2026-04-26 15:23 41.46828 0.24883 37076 ft 437 kts 192°
2026-04-26 15:23 41.40854 0.23413 37078 ft 437 kts 191°
2026-04-26 15:24 41.34918 0.21954 37073 ft 436 kts 192°
2026-04-26 15:24 41.28960 0.20453 37081 ft 436 kts 192°
2026-04-26 15:25 41.24009 0.19206 37079 ft 435 kts 192°
2026-04-26 15:25 41.17047 0.17495 37079 ft 435 kts 191°
2026-04-26 15:26 41.11162 0.15905 37081 ft 434 kts 197°
2026-04-26 15:26 41.05398 0.13572 37079 ft 433 kts 199°
2026-04-26 15:27 40.99640 0.11175 37084 ft 434 kts 198°
2026-04-26 15:27 40.93864 0.08851 37087 ft 434 kts 198°
2026-04-26 15:28 40.88112 0.06564 37083 ft 435 kts 197°
2026-04-26 15:28 40.82317 0.04242 37097 ft 436 kts 198°
2026-04-26 15:29 40.76506 0.01901 37090 ft 437 kts 198°
2026-04-26 15:30 40.64830 -0.02787 37103 ft 440 kts 198°
2026-04-26 15:30 40.59008 -0.05118 37107 ft 440 kts 198°
2026-04-26 15:31 40.50196 -0.08617 37106 ft 441 kts 197°
2026-04-26 15:32 40.43361 -0.11314 37099 ft 441 kts 197°
2026-04-26 15:32 40.35534 -0.14396 37103 ft 441 kts 198°
2026-04-26 15:33 40.29655 -0.16708 37107 ft 441 kts 197°
2026-04-26 15:33 40.23778 -0.19015 37099 ft 441 kts 198°
2026-04-26 15:34 40.17911 -0.21335 37111 ft 441 kts 197°
2026-04-26 15:34 40.12077 -0.23643 37109 ft 441 kts 198°
2026-04-26 15:35 40.06205 -0.25959 37116 ft 441 kts 197°
2026-04-26 15:35 40.00327 -0.28271 37125 ft 441 kts 197°
2026-04-26 15:36 39.94438 -0.30548 37123 ft 442 kts 197°
2026-04-26 15:36 39.88540 -0.32815 37123 ft 442 kts 197°
2026-04-26 15:37 39.82642 -0.35107 37128 ft 443 kts 197°
2026-04-26 15:37 39.76781 -0.37393 37125 ft 443 kts 197°
2026-04-26 15:38 39.70870 -0.39688 37139 ft 444 kts 198°
2026-04-26 15:38 39.64945 -0.41982 37131 ft 444 kts 197°
2026-04-26 15:39 39.60020 -0.43889 37130 ft 445 kts 197°
2026-04-26 15:39 39.55092 -0.45795 37133 ft 445 kts 198°
2026-04-26 15:40 39.47266 -0.49069 37112 ft 444 kts 207°
2026-04-26 15:40 39.41836 -0.52831 37126 ft 443 kts 209°
2026-04-26 15:41 39.37363 -0.56053 37122 ft 443 kts 209°
2026-04-26 15:41 39.31958 -0.59871 37112 ft 443 kts 210°
2026-04-26 15:42 39.26532 -0.63643 37122 ft 443 kts 209°
2026-04-26 15:42 39.21097 -0.67400 37124 ft 443 kts 209°
2026-04-26 15:43 39.15705 -0.71127 37117 ft 443 kts 209°
2026-04-26 15:44 39.07546 -0.76754 37109 ft 444 kts 209°
2026-04-26 15:44 38.99369 -0.82382 37120 ft 445 kts 209°
2026-04-26 15:45 38.91164 -0.88015 37119 ft 447 kts 209°
2026-04-26 15:46 38.82969 -0.93632 37126 ft 448 kts 208°
2026-04-26 15:46 38.78396 -0.96761 37126 ft 449 kts 209°
2026-04-26 15:47 38.69193 -1.03037 37126 ft 449 kts 209°
2026-04-26 15:48 38.63711 -1.06766 37131 ft 449 kts 209°
2026-04-26 15:48 38.58190 -1.10517 37130 ft 449 kts 209°
2026-04-26 15:49 38.52675 -1.14260 37126 ft 449 kts 209°
2026-04-26 15:49 38.47158 -1.17998 37136 ft 448 kts 209°
2026-04-26 15:50 38.41645 -1.21724 37134 ft 448 kts 209°
2026-04-26 15:50 38.36174 -1.25416 37116 ft 447 kts 209°
2026-04-26 15:50 38.33463 -1.27243 37098 ft 434 kts 208°
2026-04-26 15:51 38.30835 -1.29011 37100 ft 420 kts 208°
2026-04-26 15:51 38.25736 -1.32440 37131 ft 417 kts 208°
2026-04-26 15:52 38.20531 -1.35939 37140 ft 429 kts 209°
2026-04-26 15:52 38.15180 -1.39527 37138 ft 441 kts 209°
2026-04-26 15:53 38.09730 -1.43175 36680 ft 447 kts 208°
2026-04-26 15:53 38.06974 -1.45017 35945 ft 450 kts 208°
2026-04-26 15:53 38.04187 -1.46878 35129 ft 457 kts 207°
2026-04-26 15:53 38.01354 -1.48769 34310 ft 463 kts 207°
2026-04-26 15:54 37.98485 -1.50682 33414 ft 468 kts 206°
2026-04-26 15:54 37.95590 -1.52611 32515 ft 473 kts 206°
2026-04-26 15:54 37.92667 -1.54557 31564 ft 477 kts 208°
2026-04-26 15:54 37.89702 -1.56526 30509 ft 485 kts 207°
2026-04-26 15:55 37.86741 -1.58463 29796 ft 484 kts 207°
2026-04-26 15:55 37.83765 -1.60391 29189 ft 477 kts 207°
2026-04-26 15:55 37.80827 -1.62288 28584 ft 473 kts 207°
2026-04-26 15:55 37.77859 -1.64204 28015 ft 485 kts 207°
2026-04-26 15:56 37.74824 -1.66164 27446 ft 495 kts 207°
2026-04-26 15:56 37.71743 -1.68155 26879 ft 498 kts 207°
2026-04-26 15:56 37.68663 -1.70144 26331 ft 496 kts 207°
2026-04-26 15:56 37.65590 -1.72128 25788 ft 495 kts 207°
2026-04-26 15:57 37.62567 -1.74080 25269 ft 494 kts 207°
2026-04-26 15:57 37.59512 -1.76051 24741 ft 493 kts 207°
2026-04-26 15:57 37.56466 -1.78013 24217 ft 491 kts 207°
2026-04-26 15:57 37.54418 -1.79333 23882 ft 489 kts 207°
2026-04-26 15:58 37.50426 -1.81899 23140 ft 484 kts 207°
2026-04-26 15:58 37.47436 -1.83820 22562 ft 480 kts 207°
2026-04-26 15:58 37.44488 -1.85712 21969 ft 472 kts 207°
2026-04-26 15:58 37.41588 -1.87571 21417 ft 465 kts 207°
2026-04-26 15:59 37.38715 -1.89412 20874 ft 462 kts 207°
2026-04-26 15:59 37.35902 -1.91214 20328 ft 458 kts 207°
2026-04-26 15:59 37.33069 -1.93027 19794 ft 455 kts 207°
2026-04-26 15:59 37.30252 -1.94827 19271 ft 453 kts 207°
2026-04-26 16:00 37.27472 -1.96608 18763 ft 445 kts 208°
2026-04-26 16:00 37.24983 -1.98842 18203 ft 438 kts 226°
2026-04-26 16:00 37.23184 -2.01859 17683 ft 428 kts 243°
2026-04-26 16:00 37.21938 -2.05192 17247 ft 418 kts 247°
2026-04-26 16:01 37.20776 -2.08500 16772 ft 410 kts 247°
2026-04-26 16:01 37.19640 -2.11744 16313 ft 403 kts 248°
2026-04-26 16:01 37.18527 -2.14895 15863 ft 397 kts 247°
2026-04-26 16:01 37.17410 -2.18016 15549 ft 388 kts 247°
2026-04-26 16:02 37.16312 -2.21060 15256 ft 379 kts 247°
2026-04-26 16:02 37.15232 -2.24039 14958 ft 371 kts 247°
2026-04-26 16:02 37.14170 -2.26960 14607 ft 366 kts 246°
2026-04-26 16:02 37.13475 -2.28869 14380 ft 359 kts 246°
2026-04-26 16:03 37.12119 -2.32585 13918 ft 342 kts 246°
2026-04-26 16:03 37.11160 -2.35213 13543 ft 330 kts 246°
2026-04-26 16:03 37.10218 -2.37790 13169 ft 321 kts 246°
2026-04-26 16:03 37.09302 -2.40293 12800 ft 312 kts 247°
2026-04-26 16:04 37.08409 -2.42733 12479 ft 303 kts 247°
2026-04-26 16:04 37.07538 -2.45114 12184 ft 300 kts 246°
2026-04-26 16:04 37.06671 -2.47480 11877 ft 298 kts 246°
2026-04-26 16:04 37.05808 -2.49835 11589 ft 297 kts 246°
2026-04-26 16:05 37.04956 -2.52153 11337 ft 289 kts 247°
2026-04-26 16:05 37.04131 -2.54397 11067 ft 279 kts 246°
2026-04-26 16:05 37.03346 -2.56527 10796 ft 268 kts 247°
2026-04-26 16:05 37.02579 -2.58611 10495 ft 259 kts 246°
2026-04-26 16:06 37.01833 -2.60629 10201 ft 252 kts 248°
2026-04-26 16:06 37.01109 -2.62593 9897 ft 245 kts 246°
2026-04-26 16:06 37.00401 -2.64510 9566 ft 241 kts 247°
2026-04-26 16:06 36.99702 -2.66400 9268 ft 238 kts 247°
2026-04-26 16:07 36.99017 -2.68254 9027 ft 232 kts 247°
2026-04-26 16:07 36.98350 -2.70057 8979 ft 223 kts 246°
2026-04-26 16:07 36.97701 -2.71811 9011 ft 225 kts 246°
2026-04-26 16:07 36.97040 -2.73593 9029 ft 233 kts 246°
2026-04-26 16:08 36.96352 -2.75447 9031 ft 235 kts 246°
2026-04-26 16:08 36.95636 -2.77278 9030 ft 239 kts 238°
2026-04-26 16:08 36.94381 -2.78643 8923 ft 244 kts 201°
2026-04-26 16:08 36.92735 -2.78827 8705 ft 238 kts 166°
2026-04-26 16:09 36.91172 -2.78254 8514 ft 232 kts 160°
2026-04-26 16:09 36.89632 -2.77642 8204 ft 235 kts 160°
2026-04-26 16:09 36.88070 -2.77032 7869 ft 235 kts 160°
2026-04-26 16:09 36.86523 -2.76434 7496 ft 230 kts 160°
2026-04-26 16:10 36.85036 -2.75857 7176 ft 224 kts 160°
2026-04-26 16:10 36.83554 -2.75288 6826 ft 222 kts 160°
2026-04-26 16:10 36.82080 -2.74725 6488 ft 222 kts 160°
2026-04-26 16:10 36.80604 -2.74162 6130 ft 222 kts 160°
2026-04-26 16:11 36.79131 -2.73601 5792 ft 220 kts 160°
2026-04-26 16:11 36.77694 -2.73017 5415 ft 214 kts 152°
2026-04-26 16:11 36.76652 -2.71828 5052 ft 198 kts 115°
2026-04-26 16:11 36.76412 -2.70237 4703 ft 184 kts 78°
2026-04-26 16:12 36.76722 -2.68738 4481 ft 179 kts 74°
2026-04-26 16:12 36.77051 -2.67229 4336 ft 182 kts 73°
2026-04-26 16:12 36.77750 -2.64240 4032 ft 178 kts 70°
2026-04-26 16:13 36.78099 -2.62784 3871 ft 170 kts 71°
2026-04-26 16:13 36.78424 -2.61436 3692 ft 155 kts 71°
2026-04-26 16:13 36.78716 -2.60232 3577 ft 139 kts 70°
2026-04-26 16:13 36.78997 -2.59078 3466 ft 141 kts 70°
2026-04-26 16:14 36.79280 -2.57915 3269 ft 139 kts 69°
2026-04-26 16:14 36.79553 -2.56795 3075 ft 134 kts 70°
2026-04-26 16:14 36.80086 -2.54612 2737 ft 134 kts 71°
2026-04-26 16:15 36.80359 -2.53491 2551 ft 135 kts 71°
2026-04-26 16:15 36.80627 -2.52395 2359 ft 130 kts 72°
2026-04-26 16:15 36.80883 -2.51346 2194 ft 125 kts 73°
2026-04-26 16:16 36.81409 -2.49189 1850 ft 133 kts 73°
2026-04-26 16:16 36.81674 -2.48104 1675 ft 128 kts 74°
2026-04-26 16:16 36.81930 -2.47058 1503 ft 129 kts 75°
2026-04-26 16:16 36.82199 -2.45979 1315 ft 131 kts 74°
2026-04-26 16:17 36.82473 -2.44886 1106 ft 132 kts 74°
2026-04-26 16:17 36.82735 -2.43769 1004 ft 137 kts 75°
2026-04-26 16:17 36.83024 -2.42610 822 ft 141 kts 74°
2026-04-26 16:17 36.83305 -2.41443 557 ft 139 kts 75°
2026-04-26 16:18 36.83592 -2.40301 370 ft 136 kts 76°
2026-04-26 16:18 36.84130 -2.38095 34 ft 123 kts 74°
2026-04-26 16:19 36.84473 -2.36693 45 ft 41 kts 73°
2026-04-26 16:19 36.84524 -2.36483 49 ft 25 kts 73°
2026-04-26 16:19 36.84589 -2.36188 51 ft 2 kts 22°
2026-04-26 16:20 36.84599 -2.36224 52 ft 9 kts 254°
2026-04-26 16:20 36.84528 -2.36469 49 ft 17 kts 253°
2026-04-26 16:20 36.84505 -2.36619 47 ft 17 kts 275°
2026-04-26 16:21 36.84528 -2.36754 46 ft 15 kts 284°
2026-04-26 16:21 36.84586 -2.36857 46 ft 15 kts 317°
2026-04-26 16:21 36.84643 -2.36944 44 ft 12 kts 301°
2026-04-26 16:21 36.84657 -2.37007 43 ft 6 kts 309°
2026-04-26 16:22 36.84698 -2.37027 45 ft 6 kts 343°
2026-04-26 16:22 36.84715 -2.37033 45 ft 0 kts 343°